Location: Krakow
(50.0830°N, 19.9170°E)
Time: 07:11:28
(UTC+02:00)

A-11 Canister half - Pass Details

Date: 16 March 2026
Orbit: 1523 x 1684 km, 47.3° (Epoch: 18 April)

Event Time Altitude Azimuth Distance (km) Brightness Sun altitude
Rises 08:38:44 0° 218° (SW) 4,891 11.6 24.2°
Reaches altitude 10° 08:42:07 10° 212° (SSW) 3,889 11.3 24.6°
Maximum altitude 08:51:11 43° 145° (SE) 2,153 11.4 25.8°
Drops below altitude 10° 09:00:01 10° 79° (E) 3,782 11.7 26.9°
Sets 09:03:14 0° 73° (ENE) 4,747 12.0 27.3°
